ETD3001 YMML-ZSPD

Flight info

Callsign ETD3001
Flight time N/A
Altitude 36000
Route MNG Q76 LAKOT/N0504F350 Y80 VOMPA/N0503F360 Q165 TL R346 PY B586 PIKOK/N0497F380 B586 UNZ G339 PAKDO/N0489F400 G339 AGIKA Z41 POTET Y592 ONIKU A593 LAMEN/K0911F400 A593 DUMET DUM91A
Aircraft B789/H-SDE1E2E3FGHIJ2J3J4J5M1RWXY/LB1D1

Departure

Time 2026-05-03 21:30
Airport Melbourne Airport (YMML)

Arrival

Time N/A
Airport Shanghai Pudong International Airport (ZSPD)
Time Latitude Longitude Altitude Speed Heading
2026-05-03 20:15 -37.66899 144.84344 395 ft 0 kts 82°
2026-05-03 21:21 -37.66900 144.84332 392 ft 4 kts 84°
2026-05-03 21:21 -37.66901 144.84298 391 ft 4 kts 91°
2026-05-03 21:21 -37.66901 144.84264 391 ft 4 kts 80°
2026-05-03 21:22 -37.66902 144.84255 391 ft 0 kts 69°
2026-05-03 21:22 -37.66904 144.84238 394 ft 2 kts 102°
2026-05-03 21:22 -37.66896 144.84219 391 ft 3 kts 134°
2026-05-03 21:23 -37.66886 144.84212 386 ft 2 kts 170°
2026-05-03 21:23 -37.66907 144.84215 393 ft 4 kts 174°
2026-05-03 21:23 -37.66923 144.84218 393 ft 0 kts 172°
2026-05-03 21:24 -37.66924 144.84218 393 ft 1 kts 172°
2026-05-03 21:24 -37.66945 144.84222 392 ft 5 kts 171°
2026-05-03 21:25 -37.66995 144.84232 391 ft 9 kts 170°
2026-05-03 21:25 -37.67071 144.84247 390 ft 12 kts 172°
2026-05-03 21:25 -37.67169 144.84265 388 ft 16 kts 171°
2026-05-03 21:25 -37.67286 144.84287 385 ft 18 kts 172°
2026-05-03 21:26 -37.67410 144.84310 383 ft 18 kts 171°
2026-05-03 21:26 -37.67541 144.84335 379 ft 20 kts 172°
2026-05-03 21:26 -37.67683 144.84361 376 ft 21 kts 172°
2026-05-03 21:26 -37.67838 144.84388 370 ft 24 kts 172°
2026-05-03 21:27 -37.68009 144.84420 367 ft 26 kts 172°
2026-05-03 21:27 -37.68191 144.84454 361 ft 27 kts 171°
2026-05-03 21:27 -37.68329 144.84474 359 ft 16 kts 188°
2026-05-03 21:27 -37.68425 144.84407 354 ft 17 kts 213°
2026-05-03 21:28 -37.68521 144.84318 352 ft 17 kts 226°
2026-05-03 21:28 -37.68558 144.84196 353 ft 13 kts 263°
2026-05-03 21:28 -37.68557 144.84102 355 ft 6 kts 304°
2026-05-03 21:28 -37.68533 144.84088 351 ft 5 kts 347°
2026-05-03 21:29 -37.68441 144.84073 356 ft 32 kts 352°
2026-05-03 21:29 -37.68045 144.83999 361 ft 83 kts 352°
2026-05-03 21:29 -37.67314 144.83863 380 ft 128 kts 352°
2026-05-03 21:29 -37.66306 144.83676 410 ft 164 kts 352°
2026-05-03 21:30 -37.65132 144.83430 786 ft 168 kts 348°
2026-05-03 21:30 -37.63974 144.83159 1423 ft 171 kts 352°
2026-05-03 21:30 -37.62801 144.82960 2219 ft 164 kts 352°
2026-05-03 21:30 -37.61658 144.82804 2636 ft 176 kts 351°
2026-05-03 21:31 -37.60376 144.82578 2802 ft 197 kts 349°
2026-05-03 21:31 -37.58945 144.82442 3017 ft 221 kts
2026-05-03 21:31 -37.57449 144.83190 3429 ft 242 kts 25°
2026-05-03 21:31 -37.55972 144.84228 4139 ft 242 kts 21°
2026-05-03 21:32 -37.54428 144.85171 4859 ft 245 kts 19°
2026-05-03 21:32 -37.52881 144.86074 5592 ft 246 kts 20°
2026-05-03 21:32 -37.51352 144.86998 6301 ft 249 kts 20°
2026-05-03 21:32 -37.49787 144.87954 6979 ft 251 kts 20°
2026-05-03 21:33 -37.48201 144.88919 7552 ft 255 kts 19°
2026-05-03 21:33 -37.46590 144.89893 8185 ft 258 kts 19°
2026-05-03 21:33 -37.44964 144.90878 8823 ft 261 kts 19°
2026-05-03 21:33 -37.43314 144.91852 9439 ft 262 kts 14°
2026-05-03 21:34 -37.41604 144.92684 10022 ft 266 kts 16°
2026-05-03 21:34 -37.39845 144.93595 10229 ft 285 kts 16°
2026-05-03 21:34 -37.37934 144.94569 10299 ft 307 kts 16°
2026-05-03 21:34 -37.35885 144.95605 10372 ft 328 kts 17°
2026-05-03 21:35 -37.33711 144.96707 10477 ft 345 kts 17°
2026-05-03 21:35 -37.31482 144.97843 11080 ft 346 kts 17°
2026-05-03 21:35 -37.29241 144.98980 11618 ft 349 kts 17°
2026-05-03 21:35 -37.26985 145.00119 12165 ft 351 kts 17°
2026-05-03 21:36 -37.24709 145.01267 12705 ft 354 kts 16°
2026-05-03 21:36 -37.22419 145.02424 13309 ft 355 kts 16°
2026-05-03 21:36 -37.20115 145.03588 13836 ft 359 kts 16°
2026-05-03 21:36 -37.17793 145.04758 14296 ft 361 kts 16°
2026-05-03 21:37 -37.15450 145.05938 14756 ft 364 kts 16°
2026-05-03 21:37 -37.13088 145.07128 15198 ft 368 kts 16°
2026-05-03 21:37 -37.10701 145.08330 15631 ft 371 kts 16°
2026-05-03 21:37 -37.08299 145.09538 16033 ft 374 kts 16°
2026-05-03 21:38 -37.05872 145.10758 16480 ft 377 kts 16°
2026-05-03 21:38 -37.03431 145.11984 16881 ft 380 kts 16°
2026-05-03 21:38 -37.00971 145.13218 17320 ft 382 kts 16°
2026-05-03 21:38 -36.98491 145.14462 17719 ft 385 kts 16°
2026-05-03 21:39 -36.95996 145.15713 18131 ft 388 kts 16°
2026-05-03 21:39 -36.93482 145.16972 18495 ft 391 kts 16°
2026-05-03 21:39 -36.90948 145.18224 18855 ft 391 kts 13°
2026-05-03 21:39 -36.88330 145.19019 19180 ft 385 kts
2026-05-03 21:40 -36.85677 145.19237 19533 ft 381 kts 354°
2026-05-03 21:40 -36.83027 145.19088 19865 ft 382 kts 353°
2026-05-03 21:40 -36.80372 145.18935 20216 ft 383 kts 353°
2026-05-03 21:40 -36.77704 145.18772 20562 ft 384 kts 353°
2026-05-03 21:41 -36.75025 145.18609 20886 ft 386 kts 353°
2026-05-03 21:41 -36.72339 145.18450 21208 ft 387 kts 353°
2026-05-03 21:41 -36.69642 145.18291 21531 ft 389 kts 353°
2026-05-03 21:41 -36.66936 145.18129 21842 ft 390 kts 352°
2026-05-03 21:42 -36.64256 145.17969 22114 ft 391 kts 352°
2026-05-03 21:42 -36.61532 145.17806 22388 ft 393 kts 352°
2026-05-03 21:42 -36.58793 145.17644 22672 ft 394 kts 352°
2026-05-03 21:42 -36.56047 145.17481 22961 ft 396 kts 352°
2026-05-03 21:43 -36.53255 145.17315 23241 ft 397 kts 352°
2026-05-03 21:43 -36.50491 145.17151 23499 ft 399 kts 352°
2026-05-03 21:43 -36.47751 145.16989 23735 ft 400 kts 352°
2026-05-03 21:43 -36.44969 145.16824 23931 ft 401 kts 352°
2026-05-03 21:44 -36.42177 145.16658 24128 ft 402 kts 352°
2026-05-03 21:44 -36.39340 145.16491 24336 ft 403 kts 352°
2026-05-03 21:44 -36.36529 145.16325 24536 ft 404 kts 352°
2026-05-03 21:44 -36.33752 145.16161 24730 ft 406 kts 352°
2026-05-03 21:45 -36.30929 145.15994 24934 ft 406 kts 352°
2026-05-03 21:45 -36.28101 145.15827 25114 ft 408 kts 352°
2026-05-03 21:45 -36.25263 145.15659 25302 ft 409 kts 352°
2026-05-03 21:45 -36.22415 145.15492 25446 ft 410 kts 352°
2026-05-03 21:46 -36.19560 145.15324 25628 ft 411 kts 352°
2026-05-03 21:46 -36.16698 145.15155 25819 ft 412 kts 352°
2026-05-03 21:46 -36.13831 145.14987 26008 ft 413 kts 352°
2026-05-03 21:46 -36.10954 145.14818 26193 ft 414 kts 352°
2026-05-03 21:47 -36.08071 145.14648 26382 ft 415 kts 352°
2026-05-03 21:47 -36.05181 145.14479 26575 ft 416 kts 352°
2026-05-03 21:47 -36.02281 145.14309 26730 ft 418 kts 352°
2026-05-03 21:47 -35.99371 145.14139 26917 ft 419 kts 352°
2026-05-03 21:48 -35.96452 145.13968 27103 ft 420 kts 352°
2026-05-03 21:48 -35.93526 145.13797 27291 ft 421 kts 352°
2026-05-03 21:48 -35.90594 145.13625 27481 ft 422 kts 352°
2026-05-03 21:48 -35.87657 145.13454 27664 ft 423 kts 352°
2026-05-03 21:49 -35.84708 145.13282 27837 ft 425 kts 352°
2026-05-03 21:49 -35.81752 145.13110 28015 ft 426 kts 352°
2026-05-03 21:49 -35.78785 145.12936 28177 ft 427 kts 352°
2026-05-03 21:49 -35.75812 145.12763 28364 ft 429 kts 352°
2026-05-03 21:50 -35.72826 145.12589 28555 ft 430 kts 352°
2026-05-03 21:50 -35.69835 145.12416 28732 ft 431 kts 352°
2026-05-03 21:50 -35.66880 145.12244 28915 ft 432 kts 352°
2026-05-03 21:50 -35.63872 145.12069 29101 ft 433 kts 352°
2026-05-03 21:51 -35.60859 145.11895 29244 ft 434 kts 352°
2026-05-03 21:51 -35.57831 145.11719 29373 ft 436 kts 352°
2026-05-03 21:51 -35.54794 145.11543 29569 ft 437 kts 352°
2026-05-03 21:51 -35.51750 145.11367 29741 ft 439 kts 352°
2026-05-03 21:52 -35.48694 145.11190 29925 ft 440 kts 352°
2026-05-03 21:52 -35.45637 145.11014 30097 ft 441 kts 352°
2026-05-03 21:52 -35.42564 145.10836 30251 ft 442 kts 352°
2026-05-03 21:52 -35.39491 145.10659 30369 ft 443 kts 352°
2026-05-03 21:53 -35.36408 145.10481 30499 ft 445 kts 352°
2026-05-03 21:53 -35.33311 145.10302 30643 ft 446 kts 352°
2026-05-03 21:53 -35.30209 145.10124 30782 ft 447 kts 352°
2026-05-03 21:53 -35.27096 145.09945 30923 ft 448 kts 352°
2026-05-03 21:54 -35.23976 145.09766 31058 ft 449 kts 352°
2026-05-03 21:54 -35.20852 145.09586 31205 ft 450 kts 352°
2026-05-03 21:54 -35.17716 145.09406 31338 ft 452 kts 352°
2026-05-03 21:54 -35.14569 145.09226 31477 ft 453 kts 352°
2026-05-03 21:55 -35.11417 145.09045 31620 ft 454 kts 352°
2026-05-03 21:55 -35.08262 145.08865 31793 ft 454 kts 352°
2026-05-03 21:55 -35.05109 145.08685 32000 ft 454 kts 352°
2026-05-03 21:55 -35.01956 145.08504 32200 ft 453 kts 352°
2026-05-03 21:56 -34.98805 145.08324 32409 ft 453 kts 351°
2026-05-03 21:56 -34.95656 145.08145 32593 ft 453 kts 351°
2026-05-03 21:56 -34.92498 145.08096 32808 ft 457 kts 357°
2026-05-03 21:56 -34.89321 145.08371 32994 ft 458 kts 357°
2026-05-03 21:57 -34.86142 145.08632 33212 ft 457 kts 357°
2026-05-03 21:57 -34.82968 145.08896 33427 ft 457 kts 357°
2026-05-03 21:57 -34.79798 145.09167 33630 ft 457 kts 357°
2026-05-03 21:57 -34.77698 145.09347 33781 ft 457 kts 357°
2026-05-03 21:58 -34.74528 145.09614 33952 ft 457 kts 356°
2026-05-03 21:58 -34.71362 145.09878 34148 ft 456 kts 356°
2026-05-03 21:58 -34.68190 145.10145 34312 ft 456 kts 356°
2026-05-03 21:58 -34.65024 145.10412 34472 ft 457 kts 356°
2026-05-03 21:59 -34.61852 145.10679 34626 ft 457 kts 356°
2026-05-03 21:59 -34.58680 145.10945 34786 ft 457 kts 356°
2026-05-03 21:59 -34.55513 145.11211 34912 ft 457 kts 356°
2026-05-03 21:59 -34.52333 145.11477 35032 ft 458 kts 356°
2026-05-03 22:00 -34.49154 145.11744 35185 ft 458 kts 356°
2026-05-03 22:00 -34.45973 145.12010 35346 ft 458 kts 356°
2026-05-03 22:00 -34.42794 145.12276 35498 ft 458 kts 356°
2026-05-03 22:00 -34.39613 145.12542 35642 ft 458 kts 356°
2026-05-03 22:01 -34.36424 145.12808 35787 ft 458 kts 356°
2026-05-03 22:01 -34.33240 145.13074 35862 ft 459 kts 356°
2026-05-03 22:01 -34.30048 145.13340 35982 ft 460 kts 356°
2026-05-03 22:01 -34.26852 145.13607 36081 ft 461 kts 356°
2026-05-03 22:02 -34.20433 145.14142 36070 ft 461 kts 356°
2026-05-03 22:02 -34.14054 145.14673 36064 ft 458 kts 356°
2026-05-03 22:03 -34.07687 145.15199 36078 ft 460 kts 356°
2026-05-03 22:03 -34.01292 145.15730 36080 ft 461 kts 356°
2026-05-03 22:04 -33.94890 145.16260 36085 ft 461 kts 356°
2026-05-03 22:04 -33.88501 145.16787 36092 ft 461 kts 356°
2026-05-03 22:05 -33.82089 145.17316 36088 ft 462 kts 356°
2026-05-03 22:05 -33.75686 145.17845 36088 ft 461 kts 356°
2026-05-03 22:06 -33.69297 145.18369 36090 ft 460 kts 356°
2026-05-03 22:06 -33.62894 145.18895 36097 ft 462 kts 356°
2026-05-03 22:07 -33.56470 145.19423 36097 ft 462 kts 356°
2026-05-03 22:07 -33.50105 145.19944 36089 ft 461 kts 356°
2026-05-03 22:08 -33.43694 145.20466 36097 ft 463 kts 357°
2026-05-03 22:08 -33.37262 145.20993 36101 ft 463 kts 357°
2026-05-03 22:09 -33.30828 145.21517 36099 ft 463 kts 357°
2026-05-03 22:10 -33.21185 145.22302 36108 ft 463 kts 356°
2026-05-03 22:10 -33.14747 145.22825 36109 ft 464 kts 356°
2026-05-03 22:11 -33.08315 145.23346 36110 ft 463 kts 356°
2026-05-03 22:11 -33.01880 145.23867 36113 ft 463 kts 356°
2026-05-03 22:12 -32.95448 145.24387 36116 ft 463 kts 356°
2026-05-03 22:12 -32.89015 145.24907 36116 ft 463 kts 356°
2026-05-03 22:13 -32.82592 145.25426 36111 ft 462 kts 356°
2026-05-03 22:13 -32.76193 145.25940 36107 ft 460 kts 356°
2026-05-03 22:14 -32.69809 145.26453 36110 ft 460 kts 356°
2026-05-03 22:14 -32.63421 145.26966 36119 ft 460 kts 356°
2026-05-03 22:15 -32.57015 145.27479 36123 ft 462 kts 356°
2026-05-03 22:15 -32.50591 145.27994 36128 ft 463 kts 356°
2026-05-03 22:16 -32.44159 145.28508 36100 ft 463 kts 356°
2026-05-03 22:16 -32.37724 145.29021 36115 ft 465 kts 356°
2026-05-03 22:17 -32.31264 145.29537 36122 ft 465 kts 356°
2026-05-03 22:17 -32.24817 145.30050 36120 ft 464 kts 356°
2026-05-03 22:18 -32.18387 145.30562 36117 ft 463 kts 356°
2026-05-03 22:18 -32.12001 145.31067 36117 ft 463 kts 356°
2026-05-03 22:19 -32.05564 145.31578 36116 ft 464 kts 356°
2026-05-03 22:19 -31.99142 145.31903 36114 ft 461 kts 353°
2026-05-03 22:20 -31.92739 145.32073 36122 ft 459 kts 353°
2026-05-03 22:20 -31.86364 145.32245 36118 ft 458 kts 353°
2026-05-03 22:21 -31.79999 145.32412 36118 ft 458 kts 353°
2026-05-03 22:21 -31.73648 145.32586 36129 ft 453 kts 352°
2026-05-03 22:22 -31.67370 145.32748 36125 ft 451 kts 352°
2026-05-03 22:22 -31.61088 145.32915 36119 ft 453 kts 352°
2026-05-03 22:23 -31.54801 145.33084 36107 ft 451 kts 352°
2026-05-03 22:23 -31.48572 145.33249 36121 ft 446 kts 351°
2026-05-03 22:24 -31.42345 145.33410 36124 ft 448 kts 351°
2026-05-03 22:24 -31.36105 145.33578 36127 ft 449 kts 351°
2026-05-03 22:25 -31.29865 145.33743 36126 ft 446 kts 350°
2026-05-03 22:25 -31.23721 145.33906 36121 ft 440 kts 350°
2026-05-03 22:26 -31.17585 145.34062 36121 ft 442 kts 350°
2026-05-03 22:26 -31.11431 145.34227 36124 ft 443 kts 350°
2026-05-03 22:27 -31.05284 145.34390 36128 ft 439 kts 349°
2026-05-03 22:27 -30.99199 145.34547 36118 ft 437 kts 349°
2026-05-03 22:28 -30.93108 145.34706 36117 ft 438 kts 349°
2026-05-03 22:28 -30.87016 145.34866 36114 ft 438 kts 349°
2026-05-03 22:29 -30.80919 145.35024 36129 ft 438 kts 349°
2026-05-03 22:29 -30.74816 145.35184 36130 ft 439 kts 349°
2026-05-03 22:30 -30.68752 145.35341 36129 ft 439 kts 349°
2026-05-03 22:30 -30.62644 145.35501 36105 ft 438 kts 349°
2026-05-03 22:31 -30.56534 145.35661 36120 ft 435 kts 349°
2026-05-03 22:31 -30.50519 145.35814 36118 ft 435 kts 349°
2026-05-03 22:32 -30.44464 145.35972 36113 ft 435 kts 349°
2026-05-03 22:32 -30.38408 145.36129 36123 ft 434 kts 349°
2026-05-03 22:33 -30.32344 145.36283 36126 ft 437 kts 349°
2026-05-03 22:33 -30.26256 145.36443 36131 ft 438 kts 349°
2026-05-03 22:34 -30.20168 145.36599 36131 ft 438 kts 349°
2026-05-03 22:34 -30.14082 145.36756 36116 ft 438 kts 349°
2026-05-03 22:35 -30.07978 145.36912 36112 ft 439 kts 349°
2026-05-03 22:35 -30.01878 145.37070 36116 ft 438 kts 349°
2026-05-03 22:36 -29.95783 145.37225 36114 ft 438 kts 349°
2026-05-03 22:36 -29.89694 145.37381 36118 ft 439 kts 349°
2026-05-03 22:37 -29.83565 145.37537 36122 ft 441 kts 349°
2026-05-03 22:37 -29.77432 145.37696 36124 ft 441 kts 349°
2026-05-03 22:38 -29.71299 145.37851 36128 ft 441 kts 349°
2026-05-03 22:38 -29.65167 145.38007 36120 ft 442 kts 349°
2026-05-03 22:39 -29.59011 145.38164 36120 ft 443 kts 349°
2026-05-03 22:39 -29.52852 145.38321 36121 ft 443 kts 349°
2026-05-03 22:40 -29.46691 145.38478 36088 ft 442 kts 349°
2026-05-03 22:40 -29.40528 145.38633 36118 ft 445 kts 349°
2026-05-03 22:41 -29.35381 145.38765 36122 ft 445 kts 349°
2026-05-03 22:41 -29.28196 145.38947 36120 ft 444 kts 349°
2026-05-03 22:42 -29.22031 145.39102 36116 ft 442 kts 349°
2026-05-03 22:42 -29.15842 145.39255 36129 ft 447 kts 349°
2026-05-03 22:43 -29.09617 145.39417 36126 ft 447 kts 349°
2026-05-03 22:43 -29.04408 145.39547 36128 ft 446 kts 349°
2026-05-03 22:44 -28.98242 145.39701 36111 ft 446 kts 350°
2026-05-03 22:44 -28.92022 145.39856 36123 ft 448 kts 350°
2026-05-03 22:45 -28.85776 145.40015 36125 ft 449 kts 350°
2026-05-03 22:45 -28.79534 145.40171 36126 ft 449 kts 350°
2026-05-03 22:46 -28.73247 145.40328 36123 ft 448 kts 350°
2026-05-03 22:46 -28.67017 145.40482 36128 ft 453 kts 350°
2026-05-03 22:47 -28.60721 145.40643 36129 ft 452 kts 350°
2026-05-03 22:47 -28.54445 145.40798 36127 ft 451 kts 350°
2026-05-03 22:48 -28.48182 145.40955 36121 ft 450 kts 350°
2026-05-03 22:48 -28.41933 145.41110 36117 ft 449 kts 350°
2026-05-03 22:49 -28.35679 145.41264 36117 ft 450 kts 350°
2026-05-03 22:49 -28.29401 145.41421 36122 ft 452 kts 350°
2026-05-03 22:50 -28.23111 145.41577 36128 ft 453 kts 350°
2026-05-03 22:50 -28.16805 145.41733 36132 ft 453 kts 350°
2026-05-03 22:51 -28.10505 145.41889 36130 ft 453 kts 350°
2026-05-03 22:51 -28.04209 145.42045 36128 ft 452 kts 350°
2026-05-03 22:52 -27.97918 145.42199 36125 ft 454 kts 351°
2026-05-03 22:52 -27.91591 145.42355 36128 ft 455 kts 351°
2026-05-03 22:53 -27.85267 145.42512 36137 ft 454 kts 351°
2026-05-03 22:53 -27.78944 145.42667 36137 ft 454 kts 351°
2026-05-03 22:54 -27.72623 145.42822 36132 ft 455 kts 351°
2026-05-03 22:54 -27.66279 145.42978 36134 ft 456 kts 351°
2026-05-03 22:55 -27.59935 145.43134 36140 ft 456 kts 351°
2026-05-03 22:55 -27.53593 145.43288 36108 ft 456 kts 351°
2026-05-03 22:56 -27.47256 145.43443 36136 ft 456 kts 351°
2026-05-03 22:56 -27.40895 145.43599 36140 ft 458 kts 351°
2026-05-03 22:57 -27.34576 145.43754 36139 ft 456 kts 351°
2026-05-03 22:57 -27.28246 145.43907 36124 ft 454 kts 351°
2026-05-03 22:58 -27.21917 145.44060 36136 ft 456 kts 351°
2026-05-03 22:58 -27.15549 145.44216 36136 ft 458 kts 351°
2026-05-03 22:59 -27.09186 145.44372 36137 ft 457 kts 351°
2026-05-03 22:59 -27.02841 145.44525 36143 ft 455 kts 351°
2026-05-03 23:00 -26.96491 145.44677 36141 ft 458 kts 351°
2026-05-03 23:00 -26.90126 145.44834 36143 ft 457 kts 351°
2026-05-03 23:01 -26.83772 145.44986 36142 ft 457 kts 351°
2026-05-03 23:01 -26.77418 145.45140 36137 ft 456 kts 351°
2026-05-03 23:02 -26.71056 145.45292 36137 ft 458 kts 351°
2026-05-03 23:02 -26.64669 145.45447 36143 ft 459 kts 351°
2026-05-03 23:03 -26.58324 145.45601 36143 ft 458 kts 351°
2026-05-03 23:03 -26.51965 145.45753 36138 ft 456 kts 351°
2026-05-03 23:04 -26.45555 145.45906 36146 ft 458 kts 351°
2026-05-03 23:04 -26.39211 145.46059 36147 ft 460 kts 351°
2026-05-03 23:05 -26.32822 145.46213 36144 ft 458 kts 351°
2026-05-03 23:05 -26.26455 145.46365 36138 ft 457 kts 351°
2026-05-03 23:06 -26.20084 145.46516 36134 ft 459 kts 351°
2026-05-03 23:06 -26.13691 145.46669 36137 ft 460 kts 351°
2026-05-03 23:07 -26.07287 145.46822 36141 ft 460 kts 351°
2026-05-03 23:07 -26.00891 145.46975 36140 ft 459 kts 351°
2026-05-03 23:08 -25.94515 145.47127 36141 ft 458 kts 351°
2026-05-03 23:08 -25.88157 145.47278 36137 ft 457 kts 351°
2026-05-03 23:09 -25.81802 145.47428 36134 ft 457 kts 351°
2026-05-03 23:09 -25.75435 145.47579 36143 ft 459 kts 352°
2026-05-03 23:10 -25.69028 145.47731 36151 ft 460 kts 352°
2026-05-03 23:10 -25.62623 145.47883 36151 ft 460 kts 352°
2026-05-03 23:11 -25.56226 145.48035 36147 ft 460 kts 352°
2026-05-03 23:11 -25.49836 145.48186 36140 ft 459 kts 352°
2026-05-03 23:12 -25.43464 145.48336 36138 ft 458 kts 352°
2026-05-03 23:12 -25.37089 145.48486 36135 ft 458 kts 352°
2026-05-03 23:13 -25.30719 145.48636 36138 ft 458 kts 352°
2026-05-03 23:13 -25.24416 145.48572 36147 ft 455 kts 348°
2026-05-03 23:14 -25.17997 145.48476 36151 ft 464 kts 353°
2026-05-03 23:14 -25.11599 145.48785 36152 ft 460 kts 351°
2026-05-03 23:15 -25.05204 145.48854 36149 ft 460 kts 352°
2026-05-03 23:15 -24.98801 145.49056 36139 ft 461 kts 352°
2026-05-03 23:16 -24.92373 145.49188 36140 ft 462 kts 352°
2026-05-03 23:16 -24.85941 145.49356 36140 ft 463 kts 352°
2026-05-03 23:17 -24.79504 145.49507 36139 ft 462 kts 352°
2026-05-03 23:17 -24.73068 145.49665 36138 ft 463 kts 352°
2026-05-03 23:18 -24.66617 145.49820 36135 ft 465 kts 352°
2026-05-03 23:18 -24.60159 145.49978 36136 ft 463 kts 352°
2026-05-03 23:19 -24.53720 145.50133 36137 ft 462 kts 352°
2026-05-03 23:19 -24.47297 145.50287 36132 ft 463 kts 352°
2026-05-03 23:20 -24.40837 145.50442 36136 ft 465 kts 352°
2026-05-03 23:20 -24.34404 145.50599 36137 ft 465 kts 352°
2026-05-03 23:21 -24.27895 145.50755 36141 ft 465 kts 352°
2026-05-03 23:21 -24.21426 145.50910 36136 ft 465 kts 352°
2026-05-03 23:22 -24.11738 145.51143 36139 ft 467 kts 352°
2026-05-03 23:22 -24.05247 145.51299 36141 ft 466 kts 352°
2026-05-03 23:23 -23.98760 145.51454 36118 ft 466 kts 352°
2026-05-03 23:23 -23.92267 145.51608 36127 ft 468 kts 353°
2026-05-03 23:24 -23.85750 145.51765 36132 ft 468 kts 353°
2026-05-03 23:24 -23.79231 145.51921 36129 ft 468 kts 353°
2026-05-03 23:25 -23.72716 145.52076 36120 ft 468 kts 353°
2026-05-03 23:25 -23.66195 145.52231 36125 ft 469 kts 353°
2026-05-03 23:26 -23.59665 145.52387 36126 ft 469 kts 353°
2026-05-03 23:26 -23.53143 145.52543 36123 ft 468 kts 353°
2026-05-03 23:27 -23.46689 145.52695 36125 ft 467 kts 353°
2026-05-03 23:27 -23.40180 145.52849 36126 ft 468 kts 353°
2026-05-03 23:28 -23.33666 145.53005 36122 ft 467 kts 353°
2026-05-03 23:28 -23.27198 145.53157 36120 ft 468 kts 353°
2026-05-03 23:29 -23.20677 145.53312 36125 ft 469 kts 353°
2026-05-03 23:29 -23.14146 145.53466 36130 ft 471 kts 353°
2026-05-03 23:30 -23.08693 145.53595 36133 ft 472 kts 353°
2026-05-03 23:30 -23.02127 145.53750 36136 ft 472 kts 353°
2026-05-03 23:31 -22.95566 145.53905 36138 ft 471 kts 353°
2026-05-03 23:31 -22.89005 145.54059 36124 ft 472 kts 353°
2026-05-03 23:32 -22.82413 145.54214 36128 ft 474 kts 353°
2026-05-03 23:32 -22.75829 145.54370 36124 ft 472 kts 353°
2026-05-03 23:33 -22.69266 145.54524 36124 ft 471 kts 353°
2026-05-03 23:33 -22.62710 145.54677 36125 ft 472 kts 353°
2026-05-03 23:34 -22.56120 145.54831 36127 ft 474 kts 353°
2026-05-03 23:34 -22.49557 145.54986 36129 ft 475 kts 353°
2026-05-03 23:35 -22.42957 145.55140 36129 ft 474 kts 353°
2026-05-03 23:35 -22.36362 145.55294 36119 ft 475 kts 353°
2026-05-03 23:36 -22.29750 145.55448 36119 ft 476 kts 354°
2026-05-03 23:36 -22.23127 145.55603 36123 ft 476 kts 354°
2026-05-03 23:37 -22.16503 145.55758 36126 ft 476 kts 353°
2026-05-03 23:37 -22.09894 145.55912 36124 ft 475 kts 354°
2026-05-03 23:38 -22.03277 145.56065 36121 ft 476 kts 354°
2026-05-03 23:38 -21.96650 145.56220 36122 ft 476 kts 354°
2026-05-03 23:39 -21.90022 145.56373 36119 ft 476 kts 354°
2026-05-03 23:39 -21.83399 145.56527 36123 ft 476 kts 354°
2026-05-03 23:40 -21.76759 145.56680 36121 ft 478 kts 354°
2026-05-03 23:40 -21.70109 145.56836 36127 ft 477 kts 354°
2026-05-03 23:41 -21.63474 145.56988 36116 ft 477 kts 354°
2026-05-03 23:41 -21.56941 145.57148 36112 ft 460 kts 354°
2026-05-03 23:42 -21.50601 145.57362 36122 ft 462 kts
2026-05-03 23:42 -21.44160 145.58574 36130 ft 475 kts
2026-05-03 23:43 -21.37594 145.59899 36138 ft 484 kts
2026-05-03 23:43 -21.30935 145.61221 36125 ft 488 kts
2026-05-03 23:44 -21.24304 145.62547 36131 ft 488 kts
2026-05-03 23:44 -21.17635 145.63873 36133 ft 487 kts
2026-05-03 23:45 -21.10975 145.65199 36134 ft 486 kts
2026-05-03 23:45 -21.04328 145.66519 36118 ft 486 kts
2026-05-03 23:46 -20.97670 145.67841 36119 ft 487 kts
2026-05-03 23:46 -20.90996 145.69165 36123 ft 489 kts
2026-05-03 23:47 -20.84303 145.70492 36129 ft 489 kts
2026-05-03 23:47 -20.77622 145.71815 36128 ft 487 kts
2026-05-03 23:48 -20.70968 145.73131 36122 ft 486 kts
2026-05-03 23:48 -20.64326 145.74444 36119 ft 486 kts
2026-05-03 23:49 -20.57665 145.75759 36119 ft 487 kts
2026-05-03 23:49 -20.50992 145.77076 36120 ft 489 kts
2026-05-03 23:50 -20.45423 145.78173 36125 ft 490 kts
2026-05-03 23:50 -20.37591 145.79717 36129 ft 490 kts
2026-05-03 23:51 -20.30887 145.81035 36128 ft 490 kts
2026-05-03 23:51 -20.24169 145.82356 36117 ft 491 kts
2026-05-03 23:52 -20.17432 145.83680 36120 ft 493 kts
2026-05-03 23:52 -20.10701 145.85002 36118 ft 491 kts
2026-05-03 23:53 -20.03990 145.86317 36114 ft 490 kts
2026-05-03 23:53 -19.97339 145.87620 36119 ft 489 kts
2026-05-03 23:54 -19.90630 145.88933 36119 ft 491 kts
2026-05-03 23:54 -19.83894 145.90251 36124 ft 493 kts
2026-05-03 23:55 -19.77153 145.91569 36123 ft 492 kts
2026-05-03 23:55 -19.70431 145.92881 36105 ft 491 kts
2026-05-03 23:56 -19.63686 145.94196 36107 ft 494 kts
2026-05-03 23:56 -19.56923 145.95515 36104 ft 494 kts
2026-05-03 23:57 -19.50173 145.96830 36114 ft 494 kts
2026-05-03 23:57 -19.46797 145.97486 36304 ft 493 kts
2026-05-03 23:57 -19.43432 145.98142 36543 ft 491 kts
2026-05-03 23:58 -19.40074 145.98796 36772 ft 490 kts
2026-05-03 23:58 -19.36724 145.99446 36964 ft 489 kts
2026-05-03 23:58 -19.33375 146.00096 37159 ft 488 kts
2026-05-03 23:58 -19.30038 146.00745 37372 ft 487 kts
2026-05-03 23:59 -19.26704 146.01392 37568 ft 486 kts
2026-05-03 23:59 -19.23379 146.02037 37765 ft 486 kts
2026-05-03 23:59 -19.20055 146.02682 37926 ft 485 kts
2026-05-03 23:59 -19.16741 146.03324 38126 ft 484 kts
2026-05-04 00:00 -19.10092 146.04613 38094 ft 484 kts
2026-05-04 00:00 -19.03492 146.05892 38098 ft 482 kts
2026-05-04 00:01 -18.96889 146.07167 38098 ft 482 kts
2026-05-04 00:01 -18.90289 146.08444 38094 ft 483 kts
2026-05-04 00:02 -18.83655 146.09724 38095 ft 485 kts
2026-05-04 00:02 -18.77009 146.11008 38092 ft 486 kts
2026-05-04 00:03 -18.70362 146.12289 38088 ft 486 kts
2026-05-04 00:03 -18.63713 146.13571 38093 ft 486 kts
2026-05-04 00:04 -18.57047 146.14854 38092 ft 488 kts
2026-05-04 00:04 -18.50383 146.16138 38093 ft 486 kts
2026-05-04 00:05 -18.43732 146.17415 38077 ft 485 kts
2026-05-04 00:05 -18.37101 146.18689 38063 ft 484 kts
2026-05-04 00:06 -18.30478 146.19959 38078 ft 485 kts
2026-05-04 00:06 -18.23837 146.21234 38076 ft 485 kts
2026-05-04 00:07 -18.17190 146.22507 38074 ft 486 kts
2026-05-04 00:07 -18.10540 146.23781 38073 ft 486 kts
2026-05-04 00:08 -18.03927 146.25046 38076 ft 486 kts
2026-05-04 00:08 -17.97275 146.26318 38079 ft 487 kts
2026-05-04 00:09 -17.90608 146.27592 38079 ft 487 kts
2026-05-04 00:09 -17.83941 146.28864 38079 ft 487 kts
2026-05-04 00:10 -17.77271 146.30137 38069 ft 487 kts
2026-05-04 00:10 -17.70593 146.31410 38068 ft 488 kts
2026-05-04 00:11 -17.63918 146.32681 38067 ft 488 kts
2026-05-04 00:11 -17.57238 146.33952 38063 ft 488 kts
2026-05-04 00:12 -17.50566 146.35221 38052 ft 487 kts
2026-05-04 00:12 -17.43897 146.36489 38051 ft 487 kts
2026-05-04 00:13 -17.37233 146.37754 38046 ft 486 kts
2026-05-04 00:13 -17.30576 146.39017 38046 ft 486 kts
2026-05-04 00:14 -17.23922 146.40279 38047 ft 486 kts
2026-05-04 00:14 -17.17263 146.41540 38052 ft 487 kts
2026-05-04 00:15 -17.10579 146.42806 38054 ft 489 kts
2026-05-04 00:15 -17.03889 146.44072 38056 ft 488 kts
2026-05-04 00:16 -16.98344 146.45121 38041 ft 487 kts
2026-05-04 00:16 -16.90606 146.46583 38036 ft 485 kts
2026-05-04 00:17 -16.83968 146.47836 38036 ft 484 kts
2026-05-04 00:17 -16.77330 146.49087 38039 ft 486 kts
2026-05-04 00:18 -16.71746 146.50140 38041 ft 487 kts
2026-05-04 00:18 -16.65061 146.51400 38048 ft 489 kts
2026-05-04 00:19 -16.58379 146.52659 38045 ft 487 kts
2026-05-04 00:19 -16.51711 146.53913 38043 ft 486 kts
2026-05-04 00:20 -16.45064 146.55163 38038 ft 485 kts
2026-05-04 00:20 -16.38426 146.56409 38030 ft 485 kts
2026-05-04 00:21 -16.31815 146.57651 38033 ft 487 kts
2026-05-04 00:21 -16.25132 146.58905 38038 ft 489 kts
2026-05-04 00:22 -16.18440 146.60160 38039 ft 488 kts
2026-05-04 00:22 -16.11766 146.61410 38031 ft 487 kts
2026-05-04 00:23 -16.05112 146.62656 38027 ft 485 kts
2026-05-04 00:23 -15.98467 146.63899 38019 ft 486 kts
2026-05-04 00:24 -15.91812 146.65143 38027 ft 487 kts
2026-05-04 00:24 -15.85125 146.66393 38016 ft 489 kts
2026-05-04 00:25 -15.78421 146.67645 38024 ft 490 kts
2026-05-04 00:25 -15.71722 146.68896 38025 ft 488 kts
2026-05-04 00:26 -15.65042 146.70141 38021 ft 487 kts
2026-05-04 00:26 -15.58383 146.71382 38018 ft 486 kts
2026-05-04 00:27 -15.51742 146.72618 38018 ft 485 kts
2026-05-04 00:27 -15.45086 146.73857 38022 ft 486 kts
2026-05-04 00:28 -15.38417 146.75098 38020 ft 487 kts
2026-05-04 00:28 -15.31736 146.76340 38023 ft 488 kts
2026-05-04 00:29 -15.25041 146.77583 38028 ft 489 kts
2026-05-04 00:29 -15.18348 146.78826 38023 ft 488 kts
2026-05-04 00:30 -15.11678 146.80063 38020 ft 486 kts
2026-05-04 00:30 -15.05069 146.81288 38015 ft 485 kts
2026-05-04 00:31 -14.98427 146.82519 38007 ft 486 kts
2026-05-04 00:31 -14.91757 146.83754 38008 ft 488 kts
2026-05-04 00:32 -14.85057 146.84994 38016 ft 490 kts
2026-05-04 00:32 -14.78345 146.86235 38018 ft 490 kts
2026-05-04 00:33 -14.68297 146.88091 38006 ft 489 kts
2026-05-04 00:34 -14.61590 146.89329 38007 ft 491 kts
2026-05-04 00:34 -14.54853 146.90573 38012 ft 492 kts
2026-05-04 00:35 -14.48120 146.91815 38009 ft 491 kts
2026-05-04 00:35 -14.41407 146.93052 38005 ft 490 kts
2026-05-04 00:36 -14.34704 146.94287 37993 ft 489 kts
2026-05-04 00:36 -14.28015 146.95517 37994 ft 489 kts
2026-05-04 00:37 -14.21308 146.96751 37996 ft 490 kts
2026-05-04 00:37 -14.14588 146.97987 37997 ft 491 kts
2026-05-04 00:38 -14.07856 146.99223 38000 ft 491 kts
2026-05-04 00:38 -14.01156 147.00453 37994 ft 488 kts
2026-05-04 00:39 -13.94428 147.00916 37999 ft 486 kts 360°
2026-05-04 00:39 -13.87668 147.01241 38006 ft 487 kts 359°
2026-05-04 00:40 -13.80911 147.01545 37996 ft 485 kts 360°
2026-05-04 00:40 -13.74228 147.01858 37994 ft 483 kts 360°
2026-05-04 00:41 -13.67513 147.02165 37994 ft 483 kts 360°
2026-05-04 00:41 -13.60785 147.02476 37995 ft 484 kts 360°
2026-05-04 00:42 -13.54055 147.02785 37996 ft 484 kts 360°
2026-05-04 00:42 -13.47330 147.03095 37994 ft 483 kts
2026-05-04 00:43 -13.40630 147.03403 37989 ft 481 kts
2026-05-04 00:43 -13.33931 147.03711 37986 ft 483 kts
2026-05-04 00:44 -13.27211 147.04020 37989 ft 484 kts
2026-05-04 00:44 -13.20493 147.04328 37985 ft 483 kts
2026-05-04 00:45 -13.13775 147.04636 37987 ft 484 kts
2026-05-04 00:45 -13.07044 147.04945 37987 ft 484 kts
2026-05-04 00:46 -13.00319 147.05253 37987 ft 484 kts
2026-05-04 00:46 -12.93589 147.05562 37987 ft 484 kts
2026-05-04 00:47 -12.86862 147.05870 37977 ft 483 kts
2026-05-04 00:47 -12.80153 147.06177 37973 ft 484 kts
2026-05-04 00:48 -12.73419 147.06485 37977 ft 484 kts
2026-05-04 00:48 -12.66701 147.06792 37976 ft 482 kts
2026-05-04 00:49 -12.59992 147.07098 37970 ft 484 kts
2026-05-04 00:49 -12.53259 147.07406 37975 ft 485 kts
2026-05-04 00:50 -12.46559 147.07712 37979 ft 485 kts
2026-05-04 00:50 -12.39819 147.08019 37980 ft 484 kts
2026-05-04 00:51 -12.33092 147.08326 37975 ft 484 kts
2026-05-04 00:51 -12.26369 147.08632 37978 ft 484 kts